User: anonymous   Login
Location: Poughquag
(41.6090°N, 73.6820°W)
Time: 13:56:47
(UTC-04:00)
Language:

CUTE 1.7 + AOD 2 - Orbit

View from above orbital plane
View from above orbital plane
View from above satellite
View from above satellite

Ground track
Ground track

The orbit data is extracted from the following two-line orbital elements,

1 32785U 08021C   24205.51233220  .00008704  00000-0  75525-3 0  9993
2 32785  97.7561 170.5507 0010707 193.6861 166.4072 14.97250966880984
Epoch (UTC): 23 July 2024 12:17:45
Eccentricity: 0.0010707
inclination: 97.7561°
perigee height: 568 km
apogee height: 583 km
right ascension of ascending node: 170.5507°
argument of perigee: 193.6861°
revolutions per day: 14.97250966
mean anomaly at epoch: 166.4072°
orbit number at epoch: 88098

The dashed part of the orbit path shows where the satellite is in the earth's shadow,  

DLR